Skip Page Navigation
NASA JPL Caltech
NASA Logo - Jet Propulsion Laboratory + View the NASA Portal
+ Center for Near-Earth Object Studies
JPL Home Earth Solar System Stars & Galaxies Technology
JPL Solar System Dynamics
BODIES ORBITS EPHEMERIDES TOOLS PHYSICAL DATA DISCOVERY FAQ SITE MAP
JPL Small-Body Database Browser
Search: [ help ]  
(2019 DZ)
Classification: Amor [NEO]          SPK-ID: 3838848
Ephemeris | Orbit Diagram | Orbital Elements | Mission Design | Physical Parameters | Close-Approach Data ]

[ show orbit diagram ]
Orbital Elements at Epoch 2459200.5 (2020-Dec-17.0) TDB
Reference: JPL 11 (heliocentric ecliptic J2000)
 Element Value Uncertainty (1-sigma)   Units 
e .3510852351827478 0.00016265  
a 1.613080915650485 0.00043831 au
q 1.046752023010532 2.2225e-05 au
i 15.98673921482905 0.0053206 deg
node 340.8017546555194 0.00021727 deg
peri 137.7780135577081 0.0017727 deg
M 335.8596476291372 0.13827 deg
tp 2459250.679203200754
(2021-Feb-05.17920320)
0.30786 TDB
period 748.3119084075629
2.05
0.305
0.000835
d
yr
n .4810828158088438 0.00019608 deg/d
Q 2.179409808290438 0.00059219 au
  Orbit Determination Parameters
   # obs. used (total)      60  
   data-arc span      35 days  
   first obs. used      2019-02-26  
   last obs. used      2019-04-02  
   planetary ephem.      DE441  
   SB-pert. ephem.      SB441-N16  
   condition code      7  
   norm. resid. RMS      .48825  
   source      ORB  
   producer      Otto Matic  
   solution date      2021-Apr-15 21:05:38  

Additional Information
 Earth MOID = .112862 au 
 Jupiter MOID = 2.94401 au 
 T_jup = 4.228 
[ show covariance matrix ]

Ephemeris | Orbit Diagram | Orbital Elements | Mission Design | Physical Parameters | Close-Approach Data ]

Physical Parameter Table
Parameter Symbol Value Units Sigma Reference Notes
absolute magnitude H 24.0   .42342 MPO467490 autocmod 2.6q

[ show close-approach data ]
Ephemeris | Orbit Diagram | Orbital Elements | Mission Design | Physical Parameters | Close-Approach Data ]
ABOUT SSD CREDITS/AWARDS PRIVACY/COPYRIGHT GLOSSARY LINKS
FirstGov 2021-Apr-21 21:49 UT
(server date/time)  
NASA Home Page
Site Manager:   Ryan S. Park
Webmaster  Alan B. Chamberlin